Location: Madrid
(40.4000°N, 3.6830°W)
Time: 13:58:22
(UTC+01:00)

ISS - Pass Details

Date: 10 December 2017
Orbit: 402 x 406 km, 51.6° (Epoch: 16 December)

Event Time Altitude Azimuth Distance (km) Brightness Sun altitude
Rises 19:00:37 0° 312° (NW) 2,331 0.4 -13.4°
Reaches altitude 10° 19:03:17 10° 335° (NNW) 1,468 -0.9 -13.8°
Maximum altitude 19:05:25 16° 16° (NNE) 1,158 -1.8 -14.2°
Enters shadow 19:05:33 16° 19° (NNE) 1,160 -1.9 -14.3°
